Location: Newark
(61.5000°N, 23.7667°E)
Time: 06:54:39
(UTC+00:00)

ISS - Visible Passes

Search period start: 17 September 2019 00:00
Search period end: 27 September 2019 00:00
Orbit: 411 x 421 km, 51.6° (Epoch: 17 September)

Date Brightness Start Highest point End Pass type
(mag) Time Alt. Az. Time Alt. Az. Time Alt. Az.
23 Sep -1.3 18:40:08 10° SSW 18:40:31 11° SSW 18:40:31 11° SSW visible
24 Sep -1.6 17:52:16 10° S 17:53:39 12° SSE 17:53:59 12° SSE visible
25 Sep -1.3 17:05:00 10° SSE 17:05:24 10° SSE 17:05:48 10° SSE visible
25 Sep -1.5 18:39:05 10° SW 18:40:17 14° SSW 18:40:17 14° SSW visible
26 Sep -1.7 17:50:54 10° SSW 17:52:52 15° S 17:53:37 14° SSE visible
